Weather History for Clearfield, PA

Change the Weather History Date:

Thursday, July 25, 2013

  Actual Average (KDUJ) Record (KDUJ)
Temperature  
Mean Temperature 60 °F 68 °F  
Max Temperature 73 °F 79 °F 90 °F (1989)
Min Temperature 46 °F 58 °F 48 °F (2013)
Degree Days  
Heating Degree Days 6 1  
Month to date heating degree days 25  
Since 1 June heating degree days 110  
Since 1 July heating degree days 25  
Cooling Degree Days 0 4  
Month to date cooling degree days 100  
Year to date cooling degree days 194  
Since 1 June cooling degree days 171  
Growing Degree Days 10 (Base 50)    
Moisture  
Dew Point 48 °F    
Average Humidity 68    
Maximum Humidity 93    
Minimum Humidity 37    
Precipitation  
Precipitation 0.00 in 0.14 in 0.81 in (1977)
Month to date precipitation 3.46  
Sea Level Pressure  
Sea Level Pressure 30.07 in    
Wind  
Wind Speed 4 mph (NNE)    
Max Wind Speed 9 mph    
Max Gust Speed -    
Visibility 10 miles    
Events      
T = Trace of Precipitation, MM = Missing Value Source: NWS Daily Summary

Daily Weather History Graph

Daily Weather History Graph

Search for Another Location

Airport:

Trip Planner

Search our weather history database for the weather conditions in past years. The results will help you decide how hot, cold, wet, or windy it might be!

Date:

Astronomy

Jul. 25, 2013 Rise Set
Actual Time 6:03 AM EDT 8:36 PM EDT
Civil Twilight 5:31 AM EDT 9:08 PM EDT
Nautical Twilight 4:52 AM EDT 9:47 PM EDT
Astronomical Twilight 4:07 AM EDT 10:31 PM EDT
Moon 10:13 PM EDT (7/25) 9:32 AM EDT (7/25)
Length of Visible Light 15h 36m
Length of Day
14h 33m
Waning Gibbous, 88% of the Moon is Illuminated
Jul 25
Waning Gibbous
Jul 29
Last Quarter
Aug 6
New
Aug 14
First Quarter
Aug 20
Full

Hourly Weather History & Observations

Time (EDT) Temp. Dew Point Humidity Pressure Visibility Wind Dir Wind Speed Gust Speed Precip Events Conditions
12:54 AM 54.0 °F 48.9 °F 83% 30.05 in 10.0 mi ENE 3.5 mph - N/A   Clear
1:54 AM 51.1 °F 48.0 °F 89% 30.04 in 10.0 mi North 4.6 mph - N/A   Clear
2:54 AM 50.0 °F 46.9 °F 89% 30.04 in 10.0 mi North 4.6 mph - N/A   Clear
3:54 AM 48.0 °F 46.0 °F 93% 30.04 in 10.0 mi North 4.6 mph - N/A   Clear
4:54 AM 46.9 °F 45.0 °F 93% 30.05 in 10.0 mi NNW 3.5 mph - N/A   Clear
5:54 AM 46.9 °F 45.0 °F 93% 30.06 in 10.0 mi North 4.6 mph - N/A   Clear
6:54 AM 48.0 °F 46.0 °F 93% 30.06 in 10.0 mi Calm Calm - N/A   Clear
7:54 AM 53.1 °F 48.0 °F 83% 30.08 in 10.0 mi Calm Calm - N/A   Clear
8:54 AM 55.9 °F 48.0 °F 75% 30.09 in 10.0 mi ENE 5.8 mph - N/A   Clear
9:54 AM 60.1 °F 48.0 °F 64% 30.08 in 10.0 mi ENE 8.1 mph - N/A   Clear
10:54 AM 63.0 °F 48.0 °F 58% 30.09 in 10.0 mi East 9.2 mph - N/A   Clear
11:54 AM 64.9 °F 48.0 °F 54% 30.09 in 10.0 mi East 9.2 mph - N/A   Clear
12:54 PM 68.0 °F 50.0 °F 52% 30.08 in 10.0 mi Variable 5.8 mph - N/A   Partly Cloudy
1:54 PM 70.0 °F 50.0 °F 49% 30.08 in 10.0 mi Variable 3.5 mph - N/A   Partly Cloudy
2:54 PM 71.1 °F 51.1 °F 49% 30.07 in 10.0 mi Calm Calm - N/A   Mostly Cloudy
3:54 PM 73.9 °F 51.1 °F 45% 30.06 in 10.0 mi ENE 8.1 mph - N/A   Mostly Cloudy
4:54 PM 72.0 °F 48.0 °F 43% 30.06 in 10.0 mi Calm Calm - N/A   Partly Cloudy
5:54 PM 73.0 °F 48.0 °F 41% 30.07 in 10.0 mi East 8.1 mph - N/A   Scattered Clouds
6:54 PM 73.0 °F 45.0 °F 37% 30.08 in 10.0 mi NE 6.9 mph - N/A   Clear
7:54 PM 70.0 °F 48.0 °F 46% 30.08 in 10.0 mi NE 3.5 mph - N/A   Clear
8:54 PM 64.0 °F 52.0 °F 65% 30.08 in 10.0 mi North 3.5 mph - N/A   Clear
9:54 PM 57.9 °F 52.0 °F 81% 30.09 in 10.0 mi North 6.9 mph - N/A   Clear
10:54 PM 55.0 °F 51.1 °F 86% 30.12 in 10.0 mi North 4.6 mph - N/A   Clear
11:54 PM 55.0 °F 50.0 °F 83% 30.12 in 10.0 mi Calm Calm - N/A   Clear